Location: ?ejkovice
(49.0137°N, 14.3821°E)
Time: 16:37:42
(UTC+00:00)

Nadezhda 1 Rocket - Pass Details

Date: 23 May 2024
Orbit: 942 x 1004 km, 83.0° (Epoch: 12 June)

Event Time Altitude Azimuth Distance (km) Brightness Sun altitude
Rises 01:05:02 0° 347° (NNW) 3,743 7.8 -14.9°
Reaches altitude 10° 01:07:39 10° 342° (NNW) 2,790 7.0 -14.7°
Maximum altitude 01:13:47 50° 269° (W) 1,261 4.4 -14.2°
Enters shadow 01:18:18 18° 202° (SSW) 2,216 5.2 -13.8°
